Weather History for Green Bay, WI

Change the Weather History Date:

Wednesday, February 26, 2014

  Actual Average Record
Temperature  
Mean Temperature 2 °F 24 °F  
Max Temperature 12 °F 32 °F 61 °F (2000)
Min Temperature -9 °F 16 °F -15 °F (1963)
Degree Days  
Heating Degree Days 63 41  
Month to date heating degree days 1453 1170  
Since 1 July heating degree days 6346 5759  
Cooling Degree Days 0 0  
Month to date cooling degree days 0 0  
Year to date cooling degree days 0 0  
Moisture  
Dew Point -6 °F    
Average Humidity 60    
Maximum Humidity 73    
Minimum Humidity 46    
Precipitation  
Precipitation T in 0.05 in 0.60 in (2009)
Month to date precipitation 1.21 1.01  
Year to date precipitation 2.54 2.14  
Snow  
Snow 0.10 in 0.30 in 5.60 in (2009)
Month to date snowfall 13.8 9.2  
Since 1 July snowfall 58.4 39.5  
Snow Depth 14.00 in    
Sea Level Pressure  
Sea Level Pressure 29.83 in    
Wind  
Wind Speed 13 mph (WSW)    
Max Wind Speed 25 mph    
Max Gust Speed 34 mph    
Visibility 9 miles    
Events Snow    
T = Trace of Precipitation, MM = Missing Value Source: NWS Daily Summary

Daily Weather History Graph

Daily Weather History Graph

Search for Another Location

Airport:

Trip Planner

Search our weather history database for the weather conditions in past years. The results will help you decide how hot, cold, wet, or windy it might be!

Date:

Astronomy

Feb. 26, 2014 Rise Set
Actual Time 6:34 AM CST 5:36 PM CST
Civil Twilight 6:05 AM CST 6:05 PM CST
Nautical Twilight 5:31 AM CST 6:39 PM CST
Astronomical Twilight 4:58 AM CST 7:13 PM CST
Moon 4:26 AM CST (2/26) 2:46 PM CST (2/26)
Length of Visible Light 12h 00m
Length of Day
11h 01m
Waning Crescent, 10% of the Moon is Illuminated
Feb 26
Waning Crescent
Mar 1
New
Mar 8
First Quarter
Mar 16
Full
Mar 23
Last Quarter

Hourly Weather History & Observations

Time (CST) Temp. Windchill Dew Point Humidity Pressure Visibility Wind Dir Wind Speed Gust Speed Precip Events Conditions
12:53 AM -2.9 °F -19.8 °F -11.0 °F 68% 30.20 in 10.0 mi West 10.4 mph - N/A   Clear
1:53 AM -4.0 °F -22.1 °F -11.9 °F 69% 30.20 in 10.0 mi West 11.5 mph - N/A   Clear
2:53 AM -2.9 °F -21.6 °F -11.9 °F 65% 30.19 in 10.0 mi West 12.7 mph - N/A   Clear
3:53 AM -5.1 °F -21.5 °F -13.0 °F 69% 30.19 in 10.0 mi West 9.2 mph - N/A   Clear
4:53 AM -6.0 °F -23.6 °F -14.1 °F 68% 30.18 in 10.0 mi West 10.4 mph - N/A   Clear
5:53 AM -7.1 °F -19.9 °F -15.0 °F 68% 30.17 in 10.0 mi SW 5.8 mph - N/A   Clear
6:53 AM -9.0 °F -23.8 °F -16.1 °F 71% 30.14 in 10.0 mi SW 6.9 mph - N/A   Clear
7:53 AM -6.0 °F -25.5 °F -15.0 °F 65% 30.12 in 10.0 mi WSW 12.7 mph - N/A   Clear
8:53 AM -5.1 °F -22.5 °F -14.1 °F 65% 30.09 in 10.0 mi WSW 10.4 mph - N/A   Clear
9:53 AM -2.9 °F -23.1 °F -13.0 °F 62% 30.04 in 10.0 mi SW 15.0 mph 24.2 mph N/A   Mostly Cloudy
10:53 AM -0.9 °F -18.3 °F -13.0 °F 57% 29.99 in 10.0 mi SW 11.5 mph 21.9 mph N/A   Overcast
11:53 AM 1.9 °F -18.7 °F -11.9 °F 52% 29.92 in 10.0 mi SW 18.4 mph 26.5 mph N/A   Overcast
12:53 PM 6.1 °F -13.8 °F -9.0 °F 50% 29.85 in 10.0 mi SW 19.6 mph 25.3 mph N/A   Scattered Clouds
1:53 PM 7.0 °F -8.3 °F -9.0 °F 48% 29.77 in 10.0 mi SW 11.5 mph 24.2 mph N/A   Mostly Cloudy
2:53 PM 10.0 °F -8.6 °F -7.1 °F 46% 29.70 in 10.0 mi SW 19.6 mph 29.9 mph N/A   Overcast
3:53 PM 10.9 °F -7.0 °F -7.1 °F 44% 29.64 in 10.0 mi SW 18.4 mph 27.6 mph N/A   Mostly Cloudy
4:53 PM 10.9 °F -5.4 °F -6.0 °F 47% 29.61 in 10.0 mi SW 15.0 mph 26.5 mph N/A   Partly Cloudy
5:53 PM 10.9 °F -9.2 °F -4.0 °F 51% 29.62 in 10.0 mi WSW 24.2 mph 32.2 mph N/A   Overcast
6:53 PM 10.0 °F -6.5 °F -0.0 °F 64% 29.62 in 10.0 mi WSW 15.0 mph - N/A   Overcast
7:53 PM 10.0 °F -2.9 °F 1.9 °F 70% 29.60 in 9.0 mi SW 9.2 mph - N/A   Overcast
8:42 PM 9.0 °F -4.2 °F 3.9 °F 80% 29.53 in 2.5 mi SW 9.2 mph - 0.00 in Snow Light Snow
8:51 PM 8.6 °F -4.7 °F 5.0 °F 85% 29.53 in 1.8 mi SW 9.2 mph - 0.00 in Snow Light Snow
8:53 PM 9.0 °F -3.2 °F 5.0 °F 84% 29.59 in 2.5 mi WSW 8.1 mph - 0.00 in Snow Light Snow
9:00 PM 9.0 °F -5.9 °F 3.9 °F 80% 29.53 in 4.0 mi WSW 11.5 mph - 0.00 in Snow Light Snow
9:11 PM 9.0 °F -6.6 °F 3.9 °F 80% 29.53 in 4.0 mi WSW 12.7 mph - 0.00 in Snow Light Snow
9:32 PM 8.1 °F -5.3 °F 3.0 °F 80% 29.52 in 10.0 mi WSW 9.2 mph - 0.00 in   Scattered Clouds
9:53 PM 8.1 °F -5.3 °F 3.0 °F 80% 29.58 in 10.0 mi WSW 9.2 mph - 0.00 in   Scattered Clouds
10:53 PM 9.0 °F -7.3 °F 1.9 °F 73% 29.59 in 10.0 mi WNW 13.8 mph - N/A   Partly Cloudy
11:53 PM 8.1 °F -10.7 °F -0.0 °F 70% 29.62 in 7.0 mi NW 18.4 mph 27.6 mph 0.00 in   Mostly Cloudy